Weather History for KMWO - September, 2013

Change the Weather History Date:

Thursday, September 12, 2013

  Actual Average (KDAY) Record (KDAY)
Temperature  
Mean Temperature 72 °F 67 °F  
Max Temperature 78 °F 78 °F 99 °F (1897)
Min Temperature 65 °F 56 °F 38 °F (1898)
Degree Days  
Heating Degree Days 0 2  
Month to date heating degree days 14  
Since 1 July heating degree days 16  
Cooling Degree Days 8 4  
Month to date cooling degree days 59  
Year to date cooling degree days 841  
Growing Degree Days 22 (Base 50)    
Moisture  
Dew Point 66 °F    
Average Humidity 78    
Maximum Humidity 88    
Minimum Humidity 51    
Precipitation  
Precipitation 0.00 in 0.11 in 2.19 in (2006)
Month to date precipitation 1.35  
Year to date precipitation 29.66  
Snow  
Snow 0.00 in 0.00 in - ()
Month to date snowfall 0.0  
Since 1 July snowfall 0.0  
Since 1 September snowfall 0.0  
Snow Depth -    
Sea Level Pressure  
Sea Level Pressure 29.97 in    
Wind  
Wind Speed 5 mph (West)    
Max Wind Speed 10 mph    
Max Gust Speed 16 mph    
Visibility 8 miles    
Events Rain    
T = Trace of Precipitation, MM = Missing Value Source: NWS Daily Summary

Daily Weather History Graph

Daily Weather History Graph

Search for Another Location

Airport or City:

Trip Planner

Search our weather history database for the weather conditions in past years. The results will help you decide how hot, cold, wet, or windy it might be!

Date:

Astronomy

Sep. 12, 2013 Rise Set
Actual Time 7:16 AM EDT 7:50 PM EDT
Civil Twilight 6:49 AM EDT 8:17 PM EDT
Nautical Twilight 6:17 AM EDT 8:49 PM EDT
Astronomical Twilight 5:44 AM EDT 9:22 PM EDT
Moon 2:41 PM EDT (9/12) No Moon Set
Length of Visible Light 13h 28m
Length of Day
12h 34m
Waxing Crescent, 50% of the Moon is Illuminated
Sep 12
Waxing Crescent
Sep 12
First Quarter
Sep 19
Full
Sep 26
Last Quarter
Oct 4
New

Hourly Weather History & Observations

Time (EDT) Temp. Dew Point Humidity Pressure Visibility Wind Dir Wind Speed Gust Speed Precip Events Conditions
12:15 AM 75.2 °F 65.5 °F 72% 30.03 in 10.0 mi SW 4.6 mph - N/A   Clear
12:35 AM 75.2 °F 66.6 °F 74% 30.03 in 10.0 mi SW 5.8 mph - N/A   Clear
12:55 AM 75.2 °F 66.4 °F 74% 30.03 in 10.0 mi WSW 6.9 mph - N/A   Clear
1:15 AM 72.7 °F 65.1 °F 77% 30.03 in 10.0 mi SW 5.8 mph - N/A   Clear
1:35 AM 72.7 °F 65.8 °F 79% 30.03 in 10.0 mi SW 3.5 mph - N/A   Clear
1:55 AM 72.7 °F 66.0 °F 80% 30.02 in 10.0 mi WSW 3.5 mph - N/A   Clear
2:15 AM 72.7 °F 66.4 °F 81% 30.02 in 10.0 mi SW 4.6 mph - N/A   Clear
2:35 AM 72.7 °F 66.9 °F 82% 30.02 in 10.0 mi SW 4.6 mph - N/A   Clear
2:55 AM 72.7 °F 67.1 °F 83% 30.02 in 7.0 mi Calm Calm - N/A   Clear
3:15 AM 72.7 °F 67.1 °F 83% 30.02 in 10.0 mi SW 4.6 mph - N/A   Clear
3:35 AM 72.7 °F 67.3 °F 83% 30.01 in 7.0 mi SW 5.8 mph - N/A   Clear
3:55 AM 72.7 °F 67.1 °F 83% 30.01 in 7.0 mi SW 6.9 mph - N/A   Clear
4:15 AM 72.7 °F 67.5 °F 84% 30.01 in 7.0 mi SW 5.8 mph - N/A   Clear
4:35 AM 72.7 °F 67.3 °F 83% 30.01 in 7.0 mi SW 5.8 mph - N/A   Clear
4:55 AM 72.7 °F 67.5 °F 84% 30.00 in 7.0 mi SW 4.6 mph - N/A   Clear
5:15 AM 72.7 °F 68.0 °F 85% 30.00 in 7.0 mi SW 5.8 mph - N/A   Clear
5:35 AM 71.2 °F 66.7 °F 86% 30.00 in 5.0 mi WSW 3.5 mph - N/A   Clear
5:55 AM 72.7 °F 68.2 °F 86% 30.00 in 5.0 mi WSW 3.5 mph - N/A   Haze
6:15 AM 70.2 °F 65.8 °F 86% 30.00 in 4.0 mi WSW 4.6 mph - N/A   Clear
6:35 AM 70.2 °F 66.2 °F 87% 30.00 in 4.0 mi West 4.6 mph - N/A   Scattered Clouds
6:55 AM 70.5 °F 66.4 °F 87% 29.99 in 4.0 mi SW 4.6 mph - N/A   Haze
7:15 AM 72.7 °F 68.9 °F 88% 30.01 in 3.0 mi West 4.6 mph - N/A   Mostly Cloudy
7:35 AM 72.7 °F 68.5 °F 87% 30.02 in 2.0 mi WSW 3.5 mph - N/A   Overcast
7:55 AM 72.7 °F 68.4 °F 86% 30.01 in 4.0 mi North 5.8 mph - N/A Rain Rain
8:15 AM 72.7 °F 67.3 °F 83% 30.01 in 2.0 mi NNW 4.6 mph - N/A Rain Heavy Rain
8:35 AM 72.7 °F 67.3 °F 83% 30.01 in 7.0 mi West 6.9 mph - N/A Rain Light Rain
8:55 AM 72.7 °F 67.6 °F 84% 30.02 in 7.0 mi WNW 3.5 mph - N/A   Mostly Cloudy
9:15 AM 72.7 °F 67.5 °F 84% 30.02 in 7.0 mi Calm Calm - N/A   Mostly Cloudy
9:35 AM 72.7 °F 68.2 °F 86% 30.03 in 1.0 mi Calm Calm - N/A Rain Heavy Rain
9:55 AM 72.7 °F 68.5 °F 87% 30.01 in 4.0 mi East 4.6 mph - N/A Rain Light Rain
10:15 AM 72.7 °F 68.2 °F 86% 30.02 in 7.0 mi Calm Calm - N/A   Overcast
10:35 AM 72.7 °F 68.2 °F 86% 30.01 in 2.5 mi Calm Calm - N/A Rain Light Rain
10:55 AM 72.7 °F 68.2 °F 86% 30.04 in 3.0 mi WSW 5.8 mph - N/A Rain Rain
11:15 AM 72.7 °F 68.2 °F 86% 30.03 in 3.0 mi WSW 6.9 mph - N/A Rain Rain
11:35 AM 72.7 °F 68.2 °F 86% 30.03 in 7.0 mi West 6.9 mph - N/A Rain Light Rain
11:55 AM 72.7 °F 68.0 °F 85% 30.01 in 7.0 mi NW 5.8 mph - N/A Rain Light Rain
12:15 PM 72.7 °F 68.0 °F 85% 30.01 in 10.0 mi WNW 5.8 mph - N/A Rain Light Rain
12:35 PM 72.7 °F 67.5 °F 84% 29.99 in 10.0 mi SSE 3.5 mph - N/A Rain Light Rain
12:55 PM 72.7 °F 68.0 °F 85% 30.00 in 10.0 mi WSW 6.9 mph - N/A   Mostly Cloudy
1:15 PM 72.7 °F 67.3 °F 83% 29.99 in 10.0 mi WSW 3.5 mph - N/A Rain Light Rain
1:35 PM 72.7 °F 66.2 °F 80% 29.98 in 10.0 mi WSW 8.1 mph - N/A Rain Light Rain
1:55 PM 75.2 °F 67.1 °F 76% 29.96 in 10.0 mi West 8.1 mph - N/A   Mostly Cloudy
2:15 PM 75.2 °F 65.8 °F 73% 29.97 in 10.0 mi West 8.1 mph 16.1 mph N/A   Mostly Cloudy
2:35 PM 75.2 °F 66.0 °F 73% 29.97 in 10.0 mi WNW 8.1 mph - N/A   Mostly Cloudy
2:55 PM 75.2 °F 65.7 °F 72% 29.96 in 10.0 mi WNW 8.1 mph - N/A   Scattered Clouds
3:15 PM 75.2 °F 65.5 °F 72% 29.95 in 10.0 mi West 9.2 mph - N/A   Scattered Clouds
3:35 PM 77.2 °F 66.0 °F 68% 29.93 in 10.0 mi West 9.2 mph - N/A   Scattered Clouds
3:55 PM 77.7 °F 65.8 °F 67% 29.93 in 10.0 mi West 8.1 mph - N/A   Scattered Clouds
4:15 PM 77.9 °F 64.8 °F 64% 29.92 in 10.0 mi WNW 10.4 mph - N/A   Clear
4:35 PM 77.9 °F 64.0 °F 62% 29.91 in 10.0 mi NW 6.9 mph - N/A   Clear
4:55 PM 77.9 °F 63.0 °F 60% 29.91 in 10.0 mi WNW 8.1 mph - N/A   Scattered Clouds
5:15 PM 77.9 °F 63.0 °F 60% 29.91 in 10.0 mi WNW 6.9 mph - N/A   Scattered Clouds
5:35 PM 77.9 °F 61.3 °F 57% 29.90 in 10.0 mi WNW 8.1 mph - N/A   Clear
5:55 PM 78.6 °F 61.7 °F 56% 29.90 in 10.0 mi West 6.9 mph - N/A   Clear
6:15 PM 77.9 °F 62.8 °F 60% 29.91 in 10.0 mi WNW 3.5 mph - N/A   Clear
6:35 PM 77.9 °F 58.3 °F 51% 29.91 in 10.0 mi WNW 4.6 mph - N/A   Clear
6:55 PM 77.9 °F 58.8 °F 52% 29.90 in 10.0 mi West 3.5 mph - N/A   Clear
7:15 PM 77.2 °F 61.0 °F 57% 29.90 in 10.0 mi SW 3.5 mph - N/A   Clear
7:35 PM 72.7 °F 64.0 °F 74% 29.90 in 10.0 mi WSW 3.5 mph - N/A   Clear
7:55 PM 72.0 °F 65.8 °F 81% 29.90 in 10.0 mi West 3.5 mph - N/A   Clear
8:15 PM 68.9 °F 63.9 °F 84% 29.90 in 10.0 mi Calm Calm - N/A   Clear
8:35 PM 68.4 °F 63.7 °F 85% 29.90 in 10.0 mi Calm Calm - N/A   Clear
8:55 PM 67.6 °F 63.1 °F 85% 29.90 in 10.0 mi Calm Calm - N/A   Clear
9:15 PM 67.6 °F 62.6 °F 84% 29.89 in 10.0 mi West 3.5 mph - N/A   Scattered Clouds
9:35 PM 72.1 °F 65.1 °F 78% 29.90 in 10.0 mi West 9.2 mph - N/A Rain Heavy Rain
9:55 PM 70.7 °F 64.4 °F 80% 29.90 in 5.0 mi West 10.4 mph 16.1 mph N/A Rain Heavy Rain
10:15 PM 68.9 °F 62.8 °F 81% 29.90 in 10.0 mi WNW 8.1 mph - N/A   Mostly Cloudy
10:35 PM 67.6 °F 61.9 °F 82% 29.91 in 10.0 mi WNW 4.6 mph - N/A   Scattered Clouds
10:55 PM 67.6 °F 59.9 °F 76% 29.92 in 10.0 mi NNW 4.6 mph - N/A   Clear
11:15 PM 67.6 °F 60.8 °F 79% 29.93 in 10.0 mi Calm Calm - N/A   Clear
11:35 PM 67.6 °F 60.8 °F 79% 29.94 in 10.0 mi North 6.9 mph - N/A   Clear
11:55 PM 65.3 °F 58.6 °F 79% 29.95 in 10.0 mi North 5.8 mph - N/A   Clear